CZ-6A DEB, 54616

Orbit data source: Space-Track

CZ-6A DEB, 54616 is space debris in SSO originally from a launch on Fri, 11 Nov 2022 UTC launched from the Taiyaun Space Center, China (TSC). Debris objects in space refer to the collection of defunct objects orbiting the Earth. Examples of debris include non-operational satellites, rocket bodies, and fragments generated from explosions, collisions, or faulty payload assembly.

Loading next visibility...
Identifier
54616, 2022-151NS
Orbit
SSO
Country
Flag of CNCN / PRC
Related business
Manufacturer
SAST
Mission
Spacecraft
Bus & Motor
Unknown
Mass
Unknown
Launch date (UTC)
2022-11-11 (4 years ago)
Launch vehicle
Unknown
Launch site
Taiyaun Space Center, China (TSC)
Object type
Payload
Rocket body
Debris
Shape & HBR
Unknown shape, 0.1 m
Radar Cross Section
Medium (>0.1 m² and <1 m²)

Expand to show TLE details & history
Last TLE update: 1 day ago

TLE from 1 day ago
0 CZ-6A DEB
1 54616U 22151NS  26206.40836283  .00001159  00000-0  62837-3 0  9998
2 54616  98.8280 204.8682 0054155 243.7845 115.7754 14.13672199189249
Epoch: 2026-07-25T09:48Z
TLE epoch observation values (Epoch: 2026-07-25T09:48:02.548Z)
Latitude
-0.00005°
Longitude
114.73652°
Altitude
866.923 km
Speed
7.41 km/s
True Right ascension
13h 39m 28s
True Declination
0° 00' 00"
Sunlit
Object was in daylight at epoch
Visualization orbit readout
Latitude
Unknown
Longitude
Unknown
Altitude
Unknown
Speed
Unknown
Apparent Right ascension
Unknown
Apparent Declination
Unknown
Sunlit
N/A
Visualization observer readout
Local Sidereal Time
03:05:46
Azimuth
Unknown
Elevation
Unknown
Doppler factor
Unknown
Orbital elements
Apogee altitude
883.117 km
Perigee altitude
804.894 km
Semi-major axis
7,222.142 km
Eccentricity
0.00542
Inclination
98.828°
RAAN
204.8682°
Arg. of periapsis
243.7845°
True anomaly
116.33258°
Mean anomaly
115.7754°
Eccentric anomaly
116.05415°
Mean motion
3.53626 °/min
Orbital period
101.8 mins
BSTAR
0.00062837
Loading maneuver chart data...
Computing Atmospheric mass density...

Documentation

Showing up to 5 results
|